Location: Piotrkow Trybunalski
(51.4000°N, 19.6830°E)
Time: 02:12:35
(UTC+02:00)

STRAND 1 - Pass Details

Date: 08 April 2023
Orbit: 767 x 779 km, 98.4° (Epoch: 06 June)

Event Time Altitude Azimuth Distance (km) Brightness Sun altitude
Rises 04:28:22 0° 105° (ESE) 3,245 ? -14.3°
Reaches altitude 10° 04:31:43 10° 82° (E) 2,320 ? -13.9°
Maximum altitude 04:34:20 14° 51° (NE) 2,038 ? -13.5°
Drops below altitude 10° 04:36:57 10° 20° (NNE) 2,324 ? -13.2°
Sets 04:40:19 0° 357° (N) 3,254 ? -12.7°
